sat.trackr.live / text

‹ back to catalog

ONEWEB-0352

NORAD 49216 · 2021-083AG

PAYLOAD ACTIVE UNKNOWN

§ Identity

Operator
Country
UK
Launch date
2021-09-14
Launch site
TYMSC
Launch vehicle
Mass (kg)
RCS (m²)

Purposes: comms

External: N2YO · Heavens-Above · Gunter

§ Orbital elements

Epoch: 2026-09-19T20:47:16.420128Z

Period
109.63 min
Inclination
87.8912°
Eccentricity
0.0001656
Mean motion
13.13469086 rev/d
Perigee alt
1,208.5 km
Apogee alt
1,211.0 km
Semi-major
7,587.9 km
B*
6.9041e-4
RAAN
301.3929°
Arg perigee
86.8724°
Mean anomaly
273.2594°
Rev number
24,345

§ Raw data

ONEWEB-03521 49216U 21083AG  26262.86616227  .00000265  00000+0  69041-3 0  99972 49216  87.8912 301.3929 0001656  86.8724 273.2594 13.13469086243450

JSON: /api/v1/satellites/49216 · /tle

For live sub-satellite position, see the globe view (requires WebGL).

§ Visibility from observer

Set your observer location to see the next 7 days of passes ≥ 10°. The values pass through the URL so the page stays shareable.

No JS? Fill the form by hand. The geolocation button needs JavaScript.